Voltar ao catálogo

STARLINK-32959

AtivoComunicaçõesVLEO
NORAD 63569·PAYLOAD·🇺🇸 United States

Lançado Apr 14, 2025 de Cape Canaveral Space Force Station

Loading…

Próximas Passagens (próximas 24 horas)

TLE

AtualizadoSource: CelesTrak SupGP

Época: Sep 14, 2026, 22:48 UTC

1 63569C 25076A   26257.95048611 -.00022174  00000+0 -80350-3 0  2578
2 63569  43.0015 336.8323 0001555 273.1277 322.3198 15.27574442    17

Acompanhe STARLINK-32959 em tempo real com AllMySat

Download on the App Store